Tracking 19563 objects as of 20-Mar-2019
HD Live streaming from Space Station
objects crossing your sky now

NOAA 13

Track NOAA 13 now!
10-day predictions
NOAA 13 is classified as:


NORAD ID: 22739
Int'l Code: 1993-050A
Perigee: 849.7 km
Apogee: 864.7 km
Inclination: 98.5 °
Period: 101.9 minutes
Semi major axis: 7228 km
RCS: 5.23 m2 (large)
Launch date: August 9, 1993
Source: United States (US)
Launch site: AIR FORCE WESTERN TEST RANGE (AFWTR)
aabbcc
Your satellite tracking list
Your tracking list is empty




NASA's NSSDC Master Catalog

Two Line Element Set (TLE):
1 22739U 93050A   19078.51853421 +.00000016 +00000-0 +30506-4 0  9999
2 22739 098.4814 106.1438 0010400 137.2756 222.9228 14.12725572319846
Source of the keplerian elements: AFSPC